| time (UTC) | temp C | wind direction | speed KPH | gust KPH | rain 1hr cm | rain 24hr cm | rain mn cm | humidity % | barometer mb |
| 20260906173329 | 21 | 65 | 4.8 | 9.7 | 0.00 | 0.00 | 0.00 | 45 | 1026.0 |
| 20260906171830 | 21 | 74 | 4.8 | 9.7 | 0.00 | 0.00 | 0.00 | 44 | 1026.0 |
| 20260906170330 | 22 | 43 | 4.8 | 12.9 | 0.00 | 0.00 | 0.00 | 42 | 1025.9 |
| 20260906164829 | 22 | 33 | 4.8 | 9.7 | 0.00 | 0.00 | 0.00 | 42 | 1026.0 |
| 20260906163329 | 22 | 38 | 4.8 | 14.5 | 0.00 | 0.00 | 0.00 | 40 | 1026.0 |
| 20260906161830 | 23 | 59 | 4.8 | 12.9 | 0.00 | 0.00 | 0.00 | 40 | 1026.0 |
| 20260906160329 | 23 | 32 | 4.8 | 12.9 | 0.00 | 0.00 | 0.00 | 39 | 1026.0 |
| 20260906154830 | 23 | 62 | 6.4 | 16.1 | 0.00 | 0.00 | 0.00 | 38 | 1026.0 |
| 20260906153330 | 24 | 65 | 6.4 | 16.1 | 0.00 | 0.00 | 0.00 | 39 | 1026.1 |
| 20260906151827 | 24 | 165 | 4.8 | 14.5 | 0.00 | 0.00 | 0.00 | 39 | 1026.1 |
| 20260906144823 | 25 | 132 | 3.2 | 11.3 | 0.00 | 0.00 | 0.00 | 38 | 1026.4 |
| 20260906141821 | 25 | 69 | 4.8 | 12.9 | 0.00 | 0.00 | 0.00 | 41 | 1026.6 |
| 20260906140312 | 25 | 83 | 4.8 | 11.3 | 0.00 | 0.00 | 0.00 | 42 | 1026.6 |
| 20260906134813 | 25 | 133 | 3.2 | 14.5 | 0.00 | 0.00 | 0.00 | 40 | 1026.7 |
| 20260906133128 | 25 | 51 | 3.2 | 16.1 | 0.00 | 0.00 | 0.00 | 41 | 1026.9 |
| 20260906130313 | 24 | 135 | 3.2 | 12.9 | 0.00 | 0.00 | 0.00 | 42 | 1026.9 |
| 20260906124810 | 24 | 31 | 3.2 | 9.7 | 0.00 | 0.00 | 0.00 | 43 | 1026.9 |
| 20260906123311 | 25 | 292 | 3.2 | 12.9 | 0.00 | 0.00 | 0.00 | 44 | 1026.9 |
| 20260906121810 | 23 | 351 | 4.8 | 16.1 | 0.00 | 0.00 | 0.00 | 45 | 1027.2 |
| 20260906120310 | 23 | 67 | 3.2 | 11.3 | 0.00 | 0.00 | 0.00 | 47 | 1027.2 |
| 20260906114810 | 23 | 24 | 3.2 | 14.5 | 0.00 | 0.00 | 0.00 | 47 | 1027.4 |
| 20260906113311 | 23 | 44 | 3.2 | 9.7 | 0.00 | 0.00 | 0.00 | 47 | 1027.6 |
| 20260906111814 | 23 | 16 | 3.2 | 12.9 | 0.00 | 0.00 | 0.00 | 48 | 1027.9 |
| 20260906104811 | 23 | 302 | 3.2 | 9.7 | 0.00 | 0.00 | 0.00 | 52 | 1028.1 |
| 20260906103315 | 22 | 70 | 3.2 | 12.9 | 0.00 | 0.00 | 0.00 | 50 | 1028.2 |
| 20260906094810 | 22 | 296 | 1.6 | 9.7 | 0.00 | 0.00 | 0.00 | 55 | 1028.6 |
| 20260906093311 | 21 | 318 | 3.2 | 12.9 | 0.00 | 0.00 | 0.00 | 54 | 1028.8 |
| 20260906091815 | 21 | 15 | 3.2 | 9.7 | 0.00 | 0.03 | 0.00 | 56 | 1028.9 |
| 20260906090310 | 20 | 350 | 3.2 | 9.7 | 0.00 | 0.03 | 0.00 | 57 | 1028.9 |
| 20260906084810 | 20 | 59 | 3.2 | 8.0 | 0.00 | 0.03 | 0.00 | 58 | 1028.9 |
| 20260906083310 | 20 | 188 | 1.6 | 9.7 | 0.00 | 0.03 | 0.00 | 59 | 1028.9 |
| 20260906081811 | 19 | 83 | 1.6 | 8.0 | 0.00 | 0.03 | 0.00 | 60 | 1028.9 |
| 20260906080312 | 18 | 69 | 1.6 | 8.0 | 0.00 | 0.03 | 0.00 | 61 | 1028.8 |
| 20260906074814 | 18 | 30 | 1.6 | 8.0 | 0.00 | 0.03 | 0.00 | 63 | 1028.8 |
| 20260906073315 | 17 | 55 | 1.6 | 6.4 | 0.00 | 0.03 | 0.00 | 68 | 1028.7 |
| 20260906071811 | 16 | 36 | 3.2 | 8.0 | 0.00 | 0.03 | 0.00 | 72 | 1028.7 |
| 20260906070312 | 15 | 51 | 1.6 | 6.4 | 0.00 | 0.03 | 0.00 | 81 | 1028.7 |
| 20260906064814 | 13 | 44 | 0.0 | 1.6 | 0.00 | 0.03 | 0.00 | 94 | 1028.7 |
| 20260906063313 | 12 | 44 | 0.0 | 1.6 | 0.00 | 0.03 | 0.00 | 96 | 1028.7 |
| 20260906061814 | 12 | 44 | 0.0 | 0.0 | 0.00 | 0.03 | 0.00 | 97 | 1028.6 |
| 20260906060314 | 11 | 44 | 0.0 | 0.0 | 0.00 | 0.05 | 0.00 | 97 | 1028.7 |
| 20260906054816 | 11 | 44 | 0.0 | 0.0 | 0.00 | 0.13 | 0.00 | 97 | 1028.4 |
| 20260906053313 | 11 | 44 | 0.0 | 0.0 | 0.00 | 0.13 | 0.00 | 97 | 1028.3 |
| 20260906051814 | 10 | 44 | 0.0 | 0.0 | 0.00 | 0.13 | 0.00 | 96 | 1028.4 |
| 20260906050326 | 10 | 44 | 0.0 | 0.0 | 0.00 | 0.15 | 0.00 | 96 | 1028.4 |
| 20260906044810 | 10 | 44 | 0.0 | 0.0 | 0.00 | 0.15 | 0.00 | 96 | 1028.3 |
| 20260906043311 | 11 | 44 | 0.0 | 0.0 | 0.00 | 0.20 | 0.00 | 96 | 1028.2 |
| 20260906041811 | 11 | 44 | 0.0 | 0.0 | 0.00 | 0.43 | 0.00 | 97 | 1028.2 |
| 20260906040311 | 10 | 44 | 0.0 | 0.0 | 0.00 | 0.43 | 0.00 | 96 | 1028.1 |
| 20260906034812 | 10 | 44 | 0.0 | 0.0 | 0.00 | 0.43 | 0.00 | 96 | 1027.9 |
| 20260906033311 | 10 | 44 | 0.0 | 0.0 | 0.00 | 0.43 | 0.00 | 96 | 1027.9 |
| 20260906031812 | 11 | 44 | 0.0 | 0.0 | 0.00 | 0.43 | 0.00 | 96 | 1027.9 |
| 20260906030312 | 11 | 44 | 0.0 | 0.0 | 0.00 | 0.43 | 0.00 | 96 | 1027.8 |
| 20260906024812 | 11 | 44 | 0.0 | 0.0 | 0.00 | 0.43 | 0.00 | 96 | 1027.5 |
| 20260906023311 | 11 | 44 | 0.0 | 0.0 | 0.00 | 0.43 | 0.00 | 96 | 1027.6 |
| 20260906020314 | 12 | 44 | 0.0 | 0.0 | 0.00 | 0.43 | 0.00 | 96 | 1027.6 |
| 20260906014814 | 12 | 44 | 0.0 | 0.0 | 0.00 | 0.43 | 0.00 | 96 | 1027.6 |
| 20260906011810 | 12 | 44 | 0.0 | 0.0 | 0.00 | 0.43 | 0.00 | 96 | 1027.6 |
| 20260906010315 | 12 | 44 | 0.0 | 0.0 | 0.00 | 0.43 | 0.00 | 95 | 1027.6 |
| 20260906004816 | 12 | 44 | 0.0 | 0.0 | 0.00 | 0.43 | 0.00 | 95 | 1027.5 |
| 20260906003311 | 12 | 44 | 0.0 | 0.0 | 0.00 | 0.43 | 0.00 | 95 | 1027.5 |
| 20260906001811 | 12 | 44 | 0.0 | 0.0 | 0.00 | 0.43 | 0.00 | 94 | 1027.5 |
| 20260906000312 | 13 | 44 | 0.0 | 3.2 | 0.00 | 0.43 | 0.00 | 95 | 1027.5 |
| 20260905234813 | 12 | 19 | 0.0 | 4.8 | 0.00 | 0.43 | 0.00 | 94 | 1027.5 |
| 20260905233307 | 13 | 268 | 0.0 | 0.0 | 0.00 | 0.43 | 0.00 | 94 | 1027.2 |
| 20260905230310 | 13 | 268 | 0.0 | 0.0 | 0.00 | 0.43 | 0.00 | 94 | 1027.2 |
| 20260905224808 | 13 | 268 | 0.0 | 0.0 | 0.00 | 0.43 | 0.00 | 93 | 1027.2 |
| 20260905223309 | 13 | 268 | 0.0 | 0.0 | 0.00 | 0.43 | 0.00 | 92 | 1027.0 |
| 20260905220303 | 14 | 268 | 0.0 | 1.6 | 0.00 | 0.43 | 0.00 | 92 | 1027.1 |
| 20260905214809 | 15 | 268 | 0.0 | 1.6 | 0.00 | 0.43 | 0.43 | 92 | 1027.1 |
| 20260905213303 | 14 | 268 | 0.0 | 0.0 | 0.00 | 0.43 | 0.43 | 91 | 1026.9 |
| 20260905211805 | 15 | 268 | 0.0 | 1.6 | 0.00 | 0.43 | 0.43 | 91 | 1027.0 |
| 20260905210306 | 15 | 268 | 0.0 | 1.6 | 0.00 | 0.43 | 0.43 | 90 | 1026.8 |
| 20260905204804 | 15 | 268 | 0.0 | 0.0 | 0.00 | 0.43 | 0.43 | 89 | 1026.7 |
| 20260905203308 | 16 | 268 | 0.0 | 1.6 | 0.00 | 0.43 | 0.43 | 87 | 1026.7 |
| 20260905201801 | 16 | 268 | 0.0 | 3.2 | 0.00 | 0.43 | 0.43 | 85 | 1026.6 |
| 20260905200302 | 17 | 268 | 0.0 | 3.2 | 0.00 | 0.43 | 0.43 | 84 | 1026.4 |
| 20260905193302 | 17 | 269 | 0.0 | 6.4 | 0.00 | 0.43 | 0.43 | 82 | 1026.2 |
| 20260905191803 | 18 | 271 | 1.6 | 8.0 | 0.00 | 0.43 | 0.43 | 81 | 1026.0 |
| 20260905184803 | 19 | 306 | 1.6 | 9.7 | 0.00 | 0.43 | 0.43 | 82 | 1025.4 |
| 20260905183311 | 19 | 263 | 3.2 | 11.3 | 0.00 | 0.43 | 0.43 | 84 | 1025.2 |
| 20260905181802 | 20 | 231 | 1.6 | 8.0 | 0.00 | 0.43 | 0.43 | 84 | 1025.0 |
| 20260905180303 | 20 | 214 | 1.6 | 9.7 | 0.00 | 0.43 | 0.43 | 84 | 1024.8 |
| 20260905174801 | 20 | 267 | 3.2 | 9.7 | 0.00 | 0.43 | 0.43 | 83 | 1024.5 |